TimeCST,TemperatureF,Dew PointF,Humidity,Sea Level PressureIn,VisibilityMPH,Wind Direction,Wind SpeedMPH,Gust SpeedMPH,PrecipitationIn,Events,Conditions,WindDirDegrees,DateUTC
12:15 AM,46.4,32.0,57,30.10,10.0,NNW,5.8,-,0.01,,Clear,330,2013-02-19 06:15:00
12:55 AM,44.6,30.2,57,30.11,10.0,NNW,12.7,18.4,0.01,,Clear,340,2013-02-19 06:55:00
1:15 AM,44.6,30.2,57,30.11,10.0,NNW,12.7,19.6,0.02,,Clear,330,2013-02-19 07:15:00
1:55 AM,42.8,28.4,57,30.14,10.0,NNW,6.9,-,0.02,,Clear,340,2013-02-19 07:55:00
2:15 AM,41.0,28.4,61,30.14,10.0,North,5.8,-,N/A,,Clear,350,2013-02-19 08:15:00
2:35 AM,41.0,26.6,57,30.14,10.0,North,5.8,-,N/A,,Clear,10,2013-02-19 08:35:00
2:55 AM,41.0,24.8,53,30.15,10.0,North,3.5,-,N/A,,Clear,350,2013-02-19 08:55:00
3:15 AM,39.2,24.8,56,30.15,10.0,NNW,6.9,-,N/A,,Clear,340,2013-02-19 09:15:00
3:35 AM,39.2,23.0,52,30.15,10.0,NNW,5.8,-,N/A,,Clear,340,2013-02-19 09:35:00
3:55 AM,37.4,23.0,56,30.16,10.0,North,3.5,-,N/A,,Clear,360,2013-02-19 09:55:00
4:15 AM,37.4,23.0,56,30.16,10.0,Calm,Calm,-,N/A,,Clear,0,2013-02-19 10:15:00
4:35 AM,35.6,24.8,65,30.17,10.0,Calm,Calm,-,N/A,,Clear,0,2013-02-19 10:35:00
4:55 AM,33.8,24.8,70,30.18,10.0,Calm,Calm,-,N/A,,Clear,0,2013-02-19 10:55:00
5:15 AM,32.0,24.8,75,30.19,10.0,Calm,Calm,-,N/A,,Clear,0,2013-02-19 11:15:00
5:35 AM,32.0,24.8,75,30.19,10.0,Calm,Calm,-,N/A,,Clear,0,2013-02-19 11:35:00
5:55 AM,30.2,24.8,80,30.19,10.0,Calm,Calm,-,N/A,,Clear,0,2013-02-19 11:55:00
6:15 AM,32.0,26.6,80,30.20,10.0,Calm,Calm,-,N/A,,Clear,0,2013-02-19 12:15:00
6:35 AM,32.0,24.8,75,30.21,10.0,Calm,Calm,-,N/A,,Clear,0,2013-02-19 12:35:00
6:55 AM,28.4,26.6,93,30.21,10.0,Calm,Calm,-,N/A,,Clear,0,2013-02-19 12:55:00
7:15 AM,30.2,24.8,80,30.23,10.0,Calm,Calm,-,N/A,,Clear,0,2013-02-19 13:15:00
7:35 AM,30.2,26.6,86,30.23,10.0,Calm,Calm,-,N/A,,Clear,0,2013-02-19 13:35:00
7:55 AM,32.0,26.6,80,30.24,10.0,Calm,Calm,-,N/A,,Clear,0,2013-02-19 13:55:00
8:15 AM,35.6,26.6,70,30.25,10.0,Calm,Calm,-,N/A,,Clear,0,2013-02-19 14:15:00
8:35 AM,39.2,23.0,52,30.27,10.0,Calm,Calm,-,N/A,,Clear,0,2013-02-19 14:35:00
9:15 AM,42.8,21.2,42,30.30,10.0,Calm,Calm,-,N/A,,Clear,0,2013-02-19 15:15:00
9:35 AM,42.8,19.4,39,30.30,10.0,Calm,Calm,-,N/A,,Clear,0,2013-02-19 15:35:00
9:55 AM,42.8,19.4,39,30.31,10.0,NNE,4.6,-,N/A,,Clear,30,2013-02-19 15:55:00
10:15 AM,44.6,21.2,39,30.31,10.0,Calm,Calm,-,N/A,,Clear,0,2013-02-19 16:15:00
10:35 AM,44.6,19.4,37,30.32,10.0,Calm,Calm,-,N/A,,Clear,0,2013-02-19 16:35:00
10:55 AM,46.4,19.4,34,30.32,10.0,North,3.5,-,N/A,,Clear,350,2013-02-19 16:55:00
11:15 AM,46.4,19.4,34,30.32,10.0,ESE,4.6,-,N/A,,Clear,110,2013-02-19 17:15:00
11:35 AM,48.2,19.4,32,30.32,10.0,Calm,Calm,-,N/A,,Clear,0,2013-02-19 17:35:00
11:55 AM,50.0,21.2,32,30.32,10.0,Calm,Calm,-,N/A,,Clear,0,2013-02-19 17:55:00
12:15 PM,50.0,21.2,32,30.31,10.0,West,4.6,-,N/A,,Clear,260,2013-02-19 18:15:00
12:35 PM,51.8,21.2,30,30.30,10.0,Calm,Calm,-,N/A,,Clear,0,2013-02-19 18:35:00
12:55 PM,53.6,23.0,30,30.30,10.0,NW,3.5,-,N/A,,Clear,320,2013-02-19 18:55:00
1:15 PM,53.6,23.0,30,30.28,10.0,West,4.6,-,N/A,,Clear,280,2013-02-19 19:15:00
1:35 PM,53.6,21.2,28,30.28,10.0,NNW,5.8,-,N/A,,Clear,330,2013-02-19 19:35:00
1:55 PM,53.6,21.2,28,30.27,10.0,West,8.1,-,N/A,,Clear,280,2013-02-19 19:55:00
2:15 PM,53.6,19.4,26,30.27,10.0,NNE,8.1,-,N/A,,Clear,30,2013-02-19 20:15:00
2:35 PM,55.4,21.2,26,30.27,10.0,North,6.9,21.9,N/A,,Clear,360,2013-02-19 20:35:00
2:55 PM,55.4,21.2,26,30.25,10.0,NW,10.4,-,N/A,,Clear,310,2013-02-19 20:55:00
3:15 PM,55.4,21.2,26,30.24,10.0,North,6.9,-,N/A,,Clear,360,2013-02-19 21:15:00
3:35 PM,55.4,19.4,25,30.24,10.0,WNW,10.4,16.1,N/A,,Clear,300,2013-02-19 21:35:00
3:55 PM,53.6,19.4,26,30.24,10.0,NE,4.6,-,N/A,,Clear,40,2013-02-19 21:55:00
4:15 PM,53.6,21.2,28,30.24,10.0,NNW,5.8,-,N/A,,Clear,330,2013-02-19 22:15:00
4:35 PM,53.6,19.4,26,30.24,10.0,North,9.2,-,N/A,,Clear,360,2013-02-19 22:35:00
5:15 PM,51.8,19.4,28,30.24,10.0,North,5.8,-,N/A,,Clear,360,2013-02-19 23:15:00
5:35 PM,51.8,19.4,28,30.23,10.0,North,5.8,-,N/A,,Clear,360,2013-02-19 23:35:00
6:35 PM,46.4,21.2,37,30.23,10.0,Calm,Calm,-,N/A,,Clear,0,2013-02-20 00:35:00
6:55 PM,46.4,21.2,37,30.24,10.0,Calm,Calm,-,N/A,,Clear,0,2013-02-20 00:55:00
7:35 PM,39.2,24.8,56,30.24,10.0,Calm,Calm,-,N/A,,Clear,0,2013-02-20 01:35:00
7:55 PM,37.4,24.8,60,30.24,10.0,Calm,Calm,-,N/A,,Clear,0,2013-02-20 01:55:00
8:15 PM,33.8,26.6,75,30.25,10.0,Calm,Calm,-,N/A,,Clear,0,2013-02-20 02:15:00
8:35 PM,33.8,26.6,75,30.26,10.0,Calm,Calm,-,N/A,,Clear,0,2013-02-20 02:35:00
8:55 PM,35.6,26.6,70,30.25,10.0,Calm,Calm,-,N/A,,Clear,0,2013-02-20 02:55:00
9:15 PM,33.8,26.6,75,30.25,10.0,Calm,Calm,-,N/A,,Clear,0,2013-02-20 03:15:00
9:35 PM,33.8,26.6,75,30.26,10.0,Calm,Calm,-,N/A,,Clear,0,2013-02-20 03:35:00
9:55 PM,33.8,26.6,75,30.26,10.0,Calm,Calm,-,N/A,,Clear,0,2013-02-20 03:55:00
10:15 PM,33.8,26.6,75,30.26,10.0,Calm,Calm,-,N/A,,Clear,0,2013-02-20 04:15:00
10:35 PM,33.8,26.6,75,30.26,10.0,Calm,Calm,-,N/A,,Clear,0,2013-02-20 04:35:00
10:55 PM,33.8,26.6,75,30.26,10.0,Calm,Calm,-,N/A,,Clear,0,2013-02-20 04:55:00
11:15 PM,32.0,26.6,80,30.26,10.0,Calm,Calm,-,N/A,,Clear,0,2013-02-20 05:15:00
11:35 PM,32.0,26.6,80,30.26,10.0,Calm,Calm,-,N/A,,Clear,0,2013-02-20 05:35:00
11:55 PM,33.8,28.4,81,30.24,10.0,Calm,Calm,-,N/A,,Clear,0,2013-02-20 05:55:00